User: anonymous   Login
Location: Cabeza de los Veneras
(40.2000°N, 5.2000°W)
Time: 13:08:22
(UTC+00:00)
Language:

ADEOS - Orbit

View from above orbital plane
View from above orbital plane
View from above satellite
View from above satellite

Ground track
Ground track

The orbit data is extracted from the following two-line orbital elements,

1 24277U 96046A   24175.92897582  .00000185  00000-0  89673-4 0  9997
2 24277  98.8966 206.9520 0002302  75.7977 284.3460 14.29940556452286
Epoch (UTC): 23 June 2024 22:17:43
Eccentricity: 0.0002302
inclination: 98.8966°
perigee height: 790 km
apogee height: 793 km
right ascension of ascending node: 206.9520°
argument of perigee: 75.7977°
revolutions per day: 14.29940556
mean anomaly at epoch: 284.3460°
orbit number at epoch: 45228

The dashed part of the orbit path shows where the satellite is in the earth's shadow,  

DLR